Regional Weather Roundup
Issued by NWS State College, PA

Home | Current Version | Previous Version | Text Only | Print | Product List | Glossary On
Versions: 1 2 3 4 5 6 7 8 9 10 11 12 13 14 15 16 17 18 19 20 21 22 23 24 25 26 27 28 29 30 31 32 33 34 35 36 37 38 39 40 41 42 43 44 45 46 47 48 49 50
000
ASUS41 KCTP 261210
RWRCTP

REGIONAL WEATHER ROUNDUP
NATIONAL WEATHER SERVICE STATE COLLEGE PA
700 AM EST FRI DEC 26 2014

Note: "fair" indicates few or no clouds below 12,000 feet with no
significant weather and/or obstructions to visibility.

* = STATION THAT DOES NOT REPORT PRECIPITATION /E.G. RAIN...SNOW...ETC/
    THUNDER OR FOG.

PAZ002>004-007>009-013>016-020>023-029>032-261300-
WESTERN PENNSYLVANIA

CITY           SKY/WX    TMP DP  RH WIND       PRES   REMARKS
ERIE           PTCLDY    37  28  70 S13       30.23R
MEADVILLE      MOCLDY    33  27  78 S5        30.21R
FRANKLIN*      CLOUDY    34  27  75 S5        30.24S
NEW CASTLE       N/A     34  29  82 CALM      30.26R
BEAVER COUNTY  CLOUDY    34  28  80 S5        30.24
BUTLER*        CLOUDY    36  27  69 S5        30.27R
PITTSBURGH INT PTCLDY    30  27  88 CALM      30.25S
PITTSBURGH     PTCLDY    32  25  75 S6        30.25S
INDIANA*       CLOUDY    36  28  75 W8        30.30R
LATROBE        CLOUDY    36  32  87 SW9       30.29R
WASHINGTON CO* NOT AVBL
$$

PAZ004>006-010>012-017>019-024>028-033>037-041-042-045-046-049>053-261300-
CENTRAL PENNSYLVANIA

CITY           SKY/WX    TMP DP  RH WIND       PRES   REMARKS
BRADFORD       CLOUDY    32  24  72 W5        30.20R
DUBOIS         CLOUDY    33  26  75 SW12      30.21S
CLEARFIELD     CLOUDY    34  26  72 W8        30.24R
JOHNSTOWN      CLOUDY    32  26  78 W12       30.22R
ALTOONA        MOCLDY    32  27  81 SW5       30.26R
STATE COLLEGE  MOCLDY    34  27  75 W6        30.26R
WILLIAMSPORT   CLEAR     31  25  78 CALM      30.25R
SELINSGROVE    CLEAR     28  24  85 CALM      30.26R
FT INDIANTOWN  CLEAR     31  26  84 SW2       30.26R
CAPITAL CITY   CLEAR     29  26  89 CALM      30.28R
HARRISBURG     CLEAR     26  23  88 CALM      30.27R
YORK           CLEAR     27  24  89 NW5       30.27R
$$

PAZ038>040-043-044-047-048-054-055-060>062-067>071-261300-
EASTERN PENNSYLVANIA

CITY           SKY/WX    TMP DP  RH WIND       PRES   REMARKS
SCRANTON       CLEAR     32  26  78 SW9       30.21R
MOUNT POCONO   CLEAR     31  25  78 W6        30.15R
ALLENTOWN      CLEAR     30  24  78 SW7       30.25R
QUAKERTOWN*    NOT AVBL
READING        CLEAR     33  26  75 CALM      30.26R
LANCASTER      CLEAR     30  26  85 SW3       30.27R
COATESVILLE    SUNNY     32  28  86 W5        30.26R
POTTSTOWN      CLEAR     29  26  89 CALM      30.28R
BLUE BELL      CLEAR     32  30  93 CALM      30.26R
DOYLESTOWN     CLEAR     32  28  85 SW6       30.25R
WILLOW GROVE   NOT AVBL
NORTH PHILA    CLEAR     35  26  69 W7        30.29R
PHILADELPHIA   CLEAR     38  28  67 W12       30.29R
$$


USA.gov is the U.S. government's official web portal to all federal, state and local government web resources and services.